Galveston Weather Center

Moon Phase Calendar



Online Cameras

 


      

Current Conditions in Texas City
6/24/2024 10:22:44 AM

87°F
Feels Like 100
Clear
Humidity
74%
Pressure
29.97"
Wind
10.4 mph (SSE)
Dew Point
78°F
UV Index
5/10 (Moderate)
Visibility
6 mi

Hourly Forecast

Date & Time Mon, Jun 24
10:00 AM
Mon, Jun 24
11:00 AM
Mon, Jun 24
12:00 PM
Mon, Jun 24
1:00 PM
Mon, Jun 24
2:00 PM
Mon, Jun 24
3:00 PM
Mon, Jun 24
4:00 PM
Mon, Jun 24
5:00 PM
Mon, Jun 24
6:00 PM
Mon, Jun 24
7:00 PM
Mon, Jun 24
8:00 PM
Mon, Jun 24
9:00 PM
Mon, Jun 24
10:00 PM
Mon, Jun 24
11:00 PM
Tue, Jun 25
12:00 AM
Tue, Jun 25
1:00 AM
Tue, Jun 25
2:00 AM
Tue, Jun 25
3:00 AM
Tue, Jun 25
4:00 AM
Tue, Jun 25
5:00 AM
Tue, Jun 25
6:00 AM
Tue, Jun 25
7:00 AM
Tue, Jun 25
8:00 AM
Tue, Jun 25
9:00 AM
Tue, Jun 25
10:00 AM
Tue, Jun 25
11:00 AM
Tue, Jun 25
12:00 PM
Tue, Jun 25
1:00 PM
Tue, Jun 25
2:00 PM
Tue, Jun 25
3:00 PM
Tue, Jun 25
4:00 PM
Tue, Jun 25
5:00 PM
Tue, Jun 25
6:00 PM
Tue, Jun 25
7:00 PM
Tue, Jun 25
8:00 PM
Tue, Jun 25
9:00 PM
Tue, Jun 25
10:00 PM
Tue, Jun 25
11:00 PM
Wed, Jun 26
12:00 AM
Wed, Jun 26
1:00 AM
Wed, Jun 26
2:00 AM
Wed, Jun 26
3:00 AM
Wed, Jun 26
4:00 AM
Wed, Jun 26
5:00 AM
Wed, Jun 26
6:00 AM
Wed, Jun 26
7:00 AM
Wed, Jun 26
8:00 AM
Wed, Jun 26
9:00 AM
Condition
Clear

Clear

Clear

Rain

Rain

Clear

Clear

Clear

Clear

Clear

Clear

Clear

Clear

Clear

Clear

Clear

Clear

Clear

Clear

Clear

Clouds

Clouds

Clouds

Clouds

Clouds

Clouds

Clouds

Clouds

Clear

Clear

Clear

Clear

Clear

Clear

Clear

Clear

Clear

Clear

Clear

Clear

Clouds

Clouds

Clouds

Clouds

Clouds

Clouds

Rain

Rain
Temperature 87°F87°F86°F85°F85°F84°F84°F84°F85°F84°F84°F84°F84°F84°F84°F83°F83°F83°F83°F83°F83°F83°F84°F84°F84°F84°F84°F84°F84°F84°F84°F85°F84°F84°F84°F84°F84°F84°F84°F84°F83°F83°F83°F83°F83°F83°F83°F84°F
Feels Like 100°F99°F98°F97°F95°F93°F94°F94°F94°F94°F94°F93°F93°F93°F93°F92°F92°F92°F91°F91°F91°F91°F91°F91°F92°F93°F93°F93°F93°F93°F93°F93°F93°F94°F94°F94°F93°F94°F94°F93°F92°F92°F92°F92°F91°F92°F92°F92°F
Cloudiness 0%0%0%1%5%4%3%2%2%2%0%0%0%0%0%0%0%0%2%4%12%21%78%74%80%76%69%58%2%1%1%0%0%0%0%0%0%0%0%1%77%87%94%97%97%87%81%92%
Visibility 6 mi6 mi6 mi6 mi6 mi6 mi6 mi6 mi6 mi6 mi6 mi6 mi6 mi6 mi6 mi6 mi6 mi6 mi6 mi6 mi6 mi6 mi6 mi6 mi6 mi6 mi6 mi6 mi6 mi6 mi6 mi6 mi6 mi6 mi6 mi6 mi6 mi6 mi6 mi6 mi6 mi6 mi6 mi6 mi6 mi6 mi6 mi6 mi
Precipitation 0%0%21%53%57%18%0%0%0%0%0%0%0%0%0%0%0%0%0%0%0%0%0%0%0%0%0%0%0%0%0%0%0%0%0%0%0%0%0%0%0%0%0%0%0%0%77%69%
Humidity 74%75%76%77%77%77%77%77%77%77%78%79%79%79%80%80%80%80%80%80%79%77%76%76%76%76%78%78%77%76%75%74%75%77%79%79%79%79%80%80%79%79%80%81%82%82%81%78%
Dew Point 78°F78°F78°F77°F77°F76°F76°F76°F76°F77°F77°F77°F77°F77°F76°F77°F77°F76°F76°F76°F76°F75°F75°F75°F75°F76°F76°F76°F76°F76°F76°F75°F76°F76°F77°F77°F77°F77°F77°F77°F76°F76°F76°F76°F77°F77°F77°F76°F
Pressure 29.97"29.97"29.97"29.97"29.94"29.94"29.91"29.91"29.88"29.88"29.88"29.88"29.91"29.91"29.91"29.91"29.91"29.91"29.91"29.91"29.91"29.94"29.94"29.97"29.97"29.97"29.97"29.97"29.94"29.94"29.91"29.91"29.91"29.91"29.88"29.88"29.91"29.91"29.91"29.91"29.91"29.91"29.88"29.88"29.88"29.91"29.91"29.94"
Wind Speed 10.4 mph9.3 mph9.7 mph10.1 mph10.5 mph10.1 mph10.3 mph11.2 mph11.3 mph11.3 mph12 mph13.4 mph13.4 mph13.7 mph15.2 mph15.5 mph14.2 mph12.7 mph11.5 mph10.5 mph9.4 mph8.5 mph8.2 mph7.8 mph7 mph7.7 mph9.8 mph11.6 mph12.4 mph12.5 mph11.9 mph11.5 mph11.2 mph12.2 mph14.1 mph16.3 mph16.6 mph17.6 mph18.4 mph17.7 mph16.2 mph14.1 mph13.7 mph13.4 mph13.5 mph12.2 mph11.5 mph11.6 mph
Wind
Direction
134°
SE
139°
SE
140°
SE
143°
SE
143°
SE
140°
SE
133°
SE
133°
SE
139°
SE
143°
SE
149°
SSE
158°
SSE
164°
SSE
169°
S
177°
S
180°
S
180°
S
181°
S
183°
S
182°
S
182°
S
182°
S
179°
S
171°
S
164°
SSE
150°
SSE
144°
SE
144°
SE
149°
SSE
149°
SSE
147°
SSE
148°
SSE
150°
SSE
146°
SE
157°
SSE
172°
S
179°
S
183°
S
194°
SSW
199°
SSW
203°
SSW
216°
SW
217°
SW
218°
SW
213°
SSW
217°
SW
221°
SW
219°
SW

Daily Forecast

Date High Low Precip. Humidity
Today
Jun 24

Rain
87 °F
83 °F
57%
77%
Tuesday
Jun 25

Clouds
85 °F
83 °F
0%
78%
Wednesday
Jun 26

Rain
85 °F
83 °F
77%
75%
Thursday
Jun 27

Clouds
85 °F
82 °F
0%
75%
Friday
Jun 28

Rain
86 °F
84 °F
79%
72%
Saturday
Jun 29

Clouds
85 °F
84 °F
0%
77%
Sunday
Jun 30

Rain
86 °F
83 °F
98%
70%
Monday
Jul 1

Rain
86 °F
82 °F
30%
66%
Tuesday
Jul 2

Clear
84 °F
83 °F
0%
73%
Wednesday
Jul 3

Rain
84 °F
83 °F
100%
73%
Thursday
Jul 4

Clear
85 °F
83 °F
0%
74%
Friday
Jul 5

Clear
86 °F
82 °F
0%
75%
Saturday
Jul 6

Clear
85 °F
83 °F
0%
72%
Sunday
Jul 7

Clouds
85 °F
83 °F
0%
76%
Monday
Jul 8

Rain
85 °F
84 °F
20%
73%
Tuesday
Jul 9

Clouds
86 °F
84 °F
0%
70%

Temperature 8-14 Day Outlook



Precipitation 8-14 Day Outlook






About Us
Contact Us
Site Map
Search Site
Advertise With Us
   
Galveston.USGulf.info
THE GALVESTON WEBSITE

Copyright 2024, Coastal Town
Privacy    |    Legal